Regional Weather Roundup
Issued by NWS

Home | Current Version | Previous Version | Graphics & Text | Print | Product List | Glossary On
Versions: 1 2 3 4 5 6 7 8 9 10 11 12 13 14 15 16 17 18 19 20 21 22 23 24 25 26 27 28 29 30 31 32 33 34 35 36 37 38 39 40 41 42 43 44 45 46 47 48 49 50
000
ASUS45 KBOU 280707
RWRCO

WEATHER ROUNDUP FOR COLORADO
NATIONAL WEATHER SERVICE DENVER/BOULDER CO
100 AM MDT SUN MAY 28 2017

NOTE: "FAIR" INDICATES FEW OR NO CLOUDS BELOW 12000 FEET WITH NO
SIGNIFICANT WEATHER AND/OR OBSTRUCTIONS TO VISIBILITY.

COZ001>005-013-030-031-280800-
...NORTHWEST COLORADO...

CITY           SKY/WX    TMP DP  RH WIND       PRES   REMARKS
CRAIG          FAIR      35  31  85 CALM      30.32R
HAYDEN         FAIR      39  30  70 E10       30.32S
MEEKER         FAIR      36  31  82 E5        30.32R
RABBIT EARS PA NOT AVBL
STEAMBOAT SPGS NOT AVBL
WALDEN         NOT AVBL
$$

COZ006>008-011-280800-
...WEST CENTRAL VALLEYS...

CITY           SKY/WX    TMP DP  RH WIND       PRES   REMARKS
GRAND JUNCTION FAIR      51  27  39 NE5       30.23R
MONTROSE       FAIR      44  31  60 SE6       30.29R
EAGLE          FAIR      36  33  89 E5        30.38R
RIFLE          FAIR      44  31  60 CALM      30.30R
DELTA          FAIR      55  28  35 CALM      30.27R
NUCLA          FAIR      54  27  35 E3        30.30R
$$

COZ017>023-064>068-280800-
...SOUTHWEST COLORADO...

CITY           SKY/WX    TMP DP  RH WIND       PRES   REMARKS
DURANGO        FAIR      50  25  37 N3        30.23R
CORTEZ         FAIR      41  30  65 E3        30.23R
PAGOSA SPRINGS FAIR      40  23  49 CALM      30.28F
TELLURIDE      FAIR      40  27  58 SE6       30.39R
WOLF CREEK PAS NOT AVBL
$$

COZ009-010-012-014-032>034-037-058>063-280800-
...CENTRAL COLORADO...

CITY           SKY/WX    TMP DP  RH WIND       PRES   REMARKS
ASPEN          FAIR      34  31  88 SW7       30.36F WCI  28
BUENA VISTA    FAIR      38  29  70 NW9       30.37R
COPPER MTN     NOT AVBL
BERTHOUD PASS  NOT AVBL
COTTONWOOD PAS NOT AVBL
GUNNISON       FAIR      39  25  57 N3        30.36R
KREMMLING      NOT AVBL
LEADVILLE      FAIR      25  21  85 E6        30.41S WCI  18
SALIDA         FAIR      41  29  62 W6        30.44S
SUNLIGHT       NOT AVBL
WILKERSON PASS NOT AVBL
$$

COZ069>075-280800-
...SAN LUIS VALLEY/SANGRE DE CRISTO MOUNTAINS...

CITY           SKY/WX    TMP DP  RH WIND       PRES   REMARKS
ALAMOSA        MOCLDY    41  34  76 E6        30.29S
DEL NORTE      NOT AVBL
LA VETA PASS   NOT AVBL
SAGUACHE       NOT AVBL
$$

COZ035-036-038>040-280800-
...NORTHERN COLORADO FRONT RANGE...

CITY           SKY/WX    TMP DP  RH WIND       PRES   REMARKS
DENVER INTL AP FAIR      45  40  82 SW9       30.26S
DMNS CITY PARK   N/A     46  40  79 S3        30.27S
AURORA         PTCLDY    42  39  89 S6        30.27F
FRONT RANGE AP NOT AVBL
ERIE MUNI ARPT NOT AVBL
BOULDER MUN AP NOT AVBL
CENTENNIAL     FAIR      44  39  82 SW9       30.28S
BROOMFIELD     NOT AVBL
FORT COLLINS   FAIR      46  41  82 S3        30.25S
LONGMONT       NOT AVBL
$$

COZ041-046-047-076>085-087-088-280800-
...PIKES PEAK/PALMER DIVIDE AND SOUTHERN FOOTHILLS...

CITY           SKY/WX    TMP DP  RH WIND       PRES   REMARKS
COLO. SPRINGS  FAIR      45  39  79 NW8       30.31F
A. F. ACADEMY  FAIR      36  35  97 N8        30.31F
SCHRIEVER AFB  FAIR      46  37  70 NW14G22   30.30F
CHEYENNE MTN   MOCLDY    47  31  54 NW12      30.26F
ELLICOTT       FAIR     N/A N/A N/A CALM      30.28F
FALCON         FAIR      38  34  83 W7        30.32F
FORT CARSON    FAIR      46  36  68 W8        30.29F
LIMON          FAIR      42  40  92 W9        30.25S
MONUMENT HILL  NOT AVBL
CANON CITY     NOT AVBL
WALSENBURG     CLOUDY    48  45  87 SW9       30.31F
TRINIDAD       MOCLDY    45  41  86 W9        30.29F
$$

COZ042>045-048>051-090-091-280800-
...NORTHEAST COLORADO...

CITY           SKY/WX    TMP DP  RH WIND       PRES   REMARKS
GREELEY ARPT   FAIR      43  42  97 CALM      30.25R
AKRON          FAIR      45  41  86 W10       30.20F
BURLINGTON     FAIR      47  44  90 NW9       30.17F
WRAY           FAIR      45  43  93 W9        30.16S
YUMA           NOT AVBL
STERLING       NOT AVBL
HOLYOKE        NOT AVBL
FORT MORGAN    FAIR      41  39  92 W9        30.22S
$$

COZ086-089-092>099-280800-
...SOUTHEAST COLORADO...

CITY           SKY/WX    TMP DP  RH WIND       PRES   REMARKS
PUEBLO         FAIR      50  46  86 W6        30.26S
LA JUNTA       FAIR      51  48  89 W12       30.22F
LAMAR          FAIR      51  48  89 W17       30.18R
SPRINGFIELD      N/A     47  44  90 NW13      30.17F
$$



USA.gov is the U.S. government's official web portal to all federal, state and local government web resources and services.